Overview Statistics Trail Chart Weather Telemetry Raw packets
 

This is the latest recevied weather packets stored in our database for station/object DK0KTL-4. If no packets are shown the sender has not sent any weather packets the latest 10 day(s).

<< 90 91 92 93 94 95 96 >>
Time Temp. Humidity Pressure Rain* Wind** Luminosity Snow
1787857491 22.22° C 70% 1012.4 hPa 0 mm - - -
1787857191 22.22° C 69% 1012.5 hPa 0 mm - - -
1787856891 22.22° C 69% 1012.5 hPa 0 mm - - -
1787856590 22.22° C 69% 1012.6 hPa 0 mm - - -
1787856290 22.78° C 68% 1012.7 hPa 0 mm - - -
1787855990 22.78° C 68% 1012.6 hPa 0 mm - - -
1787855689 22.78° C 68% 1012.6 hPa 0 mm - - -
1787855389 23.33° C 67% 1012.6 hPa 0 mm - - -
1787855089 23.33° C 66% 1012.7 hPa 0 mm - - -
1787854789 23.89° C 66% 1012.6 hPa 0 mm - - -
1787854488 23.89° C 65% 1012.7 hPa 0 mm - - -
1787854188 24.44° C 64% 1012.7 hPa 0 mm - - -
1787853888 24.44° C 63% 1012.7 hPa 0 mm - - -
1787853588 24.44° C 62% 1012.7 hPa 0 mm - - -
1787853287 25° C 62% 1012.7 hPa 0 mm - - -
1787852987 25° C 61% 1012.7 hPa 0 mm - - -
1787852687 25.56° C 61% 1012.8 hPa 0 mm - - -
1787852386 26.11° C 59% 1012.7 hPa 0 mm - - -
1787852086 26.11° C 58% 1012.6 hPa 0 mm - - -
1787851786 26.67° C 57% 1012.7 hPa 0 mm - - -
1787851486 27.22° C 56% 1012.7 hPa 0 mm - - -
1787851185 27.78° C 56% 1012.7 hPa 0 mm - - -
1787850885 27.78° C 54% 1012.9 hPa 0 mm - - -
1787849684 28.89° C 54% 1013 hPa 0 mm - - -
1787849384 28.89° C 53% 1013 hPa 0 mm - - -

* Rain latest hour (hover to see other rain measurements)
** Current wind speed in m/s (hover to see current wind gust speed)